Location: Wapato
(46.4478°N, 120.4212°W)
Time: 09:23:48
(UTC+00:00)

ZACube-1 - Visible Passes

Search period start: 09 June 2026 00:00
Search period end: 19 June 2026 00:00
Orbit: 536 x 591 km, 97.8° (Epoch: 9 June)

Date Brightness Start Highest point End Pass type
(mag) Time Alt. Az. Time Alt. Az. Time Alt. Az.
9 Jun ? 10:21:35 10° NE 10:24:20 17° E 10:27:01 10° SE visible
10 Jun ? 10:21:25 10° NE 10:24:08 17° E 10:26:48 10° SE visible
11 Jun ? 10:21:14 10° NE 10:23:56 17° E 10:26:35 10° SE visible
12 Jun ? 10:21:04 10° NE 10:23:43 16° E 10:26:21 10° SE visible
13 Jun ? 10:20:52 10° NE 10:23:30 16° E 10:26:06 10° SE visible
14 Jun ? 10:20:41 10° NE 10:23:17 16° E 10:25:51 10° SE visible
15 Jun ? 10:20:29 10° NE 10:23:04 16° E 10:25:36 10° SE visible
16 Jun ? 10:20:17 10° NE 10:22:50 16° E 10:25:20 10° SE visible
17 Jun ? 10:20:04 10° NE 10:22:35 16° E 10:25:04 10° SE visible
18 Jun ? 10:19:52 10° NE 10:22:20 15° E 10:24:47 10° SE visible
